Location: Vlissingen
(51.4500°N, 3.5830°E)
Time: 10:41:55
(UTC+02:00)

Envisat - Pass Details

Date: 25 May 2024
Orbit: 762 x 764 km, 98.3° (Epoch: 13 June)

Event Time Altitude Azimuth Distance (km) Brightness Sun altitude
Rises 03:55:36 0° 25° (NNE) 3,240 8.3 -11.9°
Reaches altitude 10° 03:58:33 10° 43° (NE) 2,308 6.9 -11.7°
Maximum altitude 04:02:13 20° 89° (E) 1,725 5.3 -11.3°
Drops below altitude 10° 04:05:52 10° 136° (SE) 2,295 5.4 -11.0°
Sets 04:08:46 0° 153° (SSE) 3,215 5.9 -10.8°
